Location: Newark
(31.5350°N, 35.0986°E)
Time: 11:54:14
(UTC+00:00)

Transit 4A - Pass Details

Date: 26 October 2019
Orbit: 868 x 976 km, 66.8° (Epoch: 16 November)

Event Time Altitude Azimuth Distance (km) Brightness Sun altitude
Rises 08:45:41 0° 354° (N) 3,528 10.5 45.1°
Reaches altitude 10° 08:49:35 10° 18° (NNE) 2,561 9.9 45.3°
Maximum altitude 08:52:38 14° 50° (NE) 2,255 9.9 45.4°
Drops below altitude 10° 08:55:38 10° 81° (E) 2,528 10.3 45.6°
Sets 08:59:24 0° 106° (ESE) 3,451 11.1 45.7°
